| time (UTC) | temp F | wind direction | speed MPH | gust MPH | rain 1hr in | rain 24hr in | rain mn in | humidity % | barometer mb |
| 20260510044543 | 58 | 248 | 5.0 | 12.0 | 0.00 | 0.39 | 0.00 | 82 | 1008.7 |
| 20260510043025 | 59 | 223 | 5.0 | 14.0 | 0.00 | 0.39 | 0.00 | 81 | 1008.7 |
| 20260510041522 | 59 | 215 | 3.0 | 12.0 | 0.00 | 0.39 | 0.00 | 81 | 1008.6 |
| 20260510040034 | 59 | 218 | 5.0 | 12.0 | 0.00 | 0.39 | 0.00 | 80 | 1008.5 |
| 20260510034521 | 59 | 202 | 5.0 | 12.0 | 0.00 | 0.39 | 0.39 | 79 | 1008.5 |
| 20260510033025 | 59 | 232 | 6.0 | 12.0 | 0.00 | 0.39 | 0.39 | 79 | 1008.4 |
| 20260510031519 | 59 | 190 | 6.0 | 12.0 | 0.00 | 0.39 | 0.39 | 79 | 1008.2 |
| 20260510030019 | 59 | 240 | 4.0 | 12.0 | 0.00 | 0.39 | 0.39 | 79 | 1008.2 |
| 20260510024519 | 59 | 223 | 3.0 | 10.0 | 0.00 | 0.39 | 0.39 | 78 | 1008.0 |
| 20260510023018 | 60 | 217 | 4.0 | 15.0 | 0.00 | 0.39 | 0.39 | 77 | 1007.8 |
| 20260510021517 | 59 | 221 | 4.0 | 12.0 | 0.00 | 0.39 | 0.39 | 77 | 1007.8 |
| 20260510020021 | 59 | 215 | 5.0 | 10.0 | 0.00 | 0.39 | 0.39 | 77 | 1007.6 |
| 20260510014516 | 60 | 183 | 4.0 | 9.0 | 0.00 | 0.39 | 0.39 | 76 | 1007.4 |
| 20260510013020 | 60 | 217 | 3.0 | 10.0 | 0.00 | 0.39 | 0.39 | 75 | 1007.3 |
| 20260510011520 | 60 | 216 | 4.0 | 10.0 | 0.00 | 0.39 | 0.39 | 74 | 1007.1 |
| 20260510010025 | 61 | 212 | 3.0 | 7.0 | 0.00 | 0.39 | 0.39 | 73 | 1006.9 |
| 20260510004520 | 62 | 207 | 5.0 | 8.0 | 0.00 | 0.39 | 0.39 | 72 | 1006.8 |
| 20260510003019 | 62 | 232 | 3.0 | 10.0 | 0.00 | 0.39 | 0.39 | 71 | 1006.6 |
| 20260510001518 | 63 | 209 | 6.0 | 12.0 | 0.00 | 0.39 | 0.39 | 69 | 1006.5 |
| 20260510000019 | 64 | 238 | 6.0 | 16.0 | 0.00 | 0.39 | 0.39 | 68 | 1006.3 |
| 20260509234524 | 64 | 216 | 4.0 | 10.0 | 0.00 | 0.39 | 0.39 | 67 | 1006.3 |
| 20260509233016 | 65 | 239 | 3.0 | 14.0 | 0.00 | 0.39 | 0.39 | 66 | 1006.2 |
| 20260509231519 | 65 | 228 | 5.0 | 15.0 | 0.00 | 0.39 | 0.39 | 65 | 1006.1 |
| 20260509230021 | 65 | 234 | 5.0 | 18.0 | 0.00 | 0.39 | 0.39 | 66 | 1006.2 |
| 20260509224515 | 65 | 167 | 9.0 | 18.0 | 0.00 | 0.39 | 0.39 | 63 | 1006.0 |
| 20260509223013 | 66 | 249 | 6.0 | 14.0 | 0.00 | 0.39 | 0.39 | 64 | 1006.6 |
| 20260509221512 | 66 | 246 | 3.0 | 14.0 | 0.00 | 0.39 | 0.39 | 65 | 1006.6 |
| 20260509220013 | 65 | 233 | 8.0 | 17.0 | 0.00 | 0.39 | 0.39 | 66 | 1006.6 |
| 20260509214511 | 65 | 143 | 9.0 | 16.0 | 0.00 | 0.39 | 0.39 | 65 | 1006.6 |
| 20260509213010 | 65 | 224 | 6.0 | 11.0 | 0.00 | 0.39 | 0.39 | 66 | 1006.6 |
| 20260509211509 | 66 | 256 | 8.0 | 16.0 | 0.00 | 0.39 | 0.39 | 64 | 1006.7 |
| 20260509210017 | 66 | 199 | 4.0 | 14.0 | 0.00 | 0.39 | 0.39 | 65 | 1006.6 |
| 20260509204507 | 66 | 217 | 8.0 | 11.0 | 0.00 | 0.39 | 0.39 | 65 | 1006.7 |
| 20260509203007 | 66 | 270 | 4.0 | 17.0 | 0.00 | 0.39 | 0.39 | 65 | 1006.7 |
| 20260509201504 | 65 | 249 | 3.0 | 15.0 | 0.00 | 0.39 | 0.39 | 68 | 1006.9 |
| 20260509200003 | 64 | 265 | 7.0 | 13.0 | 0.00 | 0.39 | 0.39 | 67 | 1007.2 |
| 20260509194502 | 64 | 312 | 6.0 | 18.0 | 0.00 | 0.39 | 0.39 | 69 | 1007.3 |
| 20260509193001 | 64 | 198 | 7.0 | 11.0 | 0.00 | 0.39 | 0.39 | 65 | 1007.3 |
| 20260509191600 | 64 | 252 | 5.0 | 14.0 | 0.00 | 0.39 | 0.39 | 67 | 1007.3 |
| 20260509190036 | 63 | 191 | 5.0 | 13.0 | 0.00 | 0.39 | 0.39 | 70 | 1007.5 |
| 20260509184539 | 62 | 290 | 5.0 | 13.0 | 0.00 | 0.39 | 0.39 | 71 | 1007.6 |
| 20260509183028 | 61 | 262 | 9.0 | 17.0 | 0.00 | 0.39 | 0.39 | 73 | 1007.7 |
| 20260509181527 | 62 | 258 | 5.0 | 15.0 | 0.00 | 0.39 | 0.39 | 78 | 1007.8 |
| 20260509180029 | 61 | 231 | 10.0 | 17.0 | 0.00 | 0.39 | 0.39 | 76 | 1007.7 |
| 20260509174526 | 61 | 218 | 5.0 | 12.0 | 0.00 | 0.39 | 0.39 | 79 | 1007.7 |
| 20260509173022 | 60 | 205 | 7.0 | 15.0 | 0.00 | 0.39 | 0.39 | 84 | 1007.7 |
| 20260509171528 | 59 | 183 | 9.0 | 15.0 | 0.00 | 0.39 | 0.39 | 88 | 1007.7 |
| 20260509170017 | 57 | 190 | 6.0 | 12.0 | 0.00 | 0.39 | 0.39 | 93 | 1007.5 |
| 20260509164515 | 56 | 175 | 6.0 | 11.0 | 0.00 | 0.39 | 0.39 | 94 | 1007.5 |
| 20260509163013 | 54 | 182 | 7.0 | 9.0 | 0.00 | 0.39 | 0.39 | 95 | 1007.4 |
| 20260509161511 | 53 | 175 | 4.0 | 9.0 | 0.00 | 0.39 | 0.39 | 95 | 1007.6 |
| 20260509160017 | 53 | 173 | 3.0 | 6.0 | 0.00 | 0.39 | 0.39 | 95 | 1007.7 |
| 20260509154511 | 53 | 179 | 4.0 | 7.0 | 0.00 | 0.39 | 0.39 | 96 | 1007.6 |
| 20260509153009 | 52 | 155 | 6.0 | 9.0 | 0.00 | 0.39 | 0.39 | 96 | 1007.4 |
| 20260509151509 | 52 | 169 | 7.0 | 11.0 | 0.00 | 0.39 | 0.39 | 96 | 1007.5 |
| 20260509150007 | 52 | 163 | 5.0 | 8.0 | 0.00 | 0.39 | 0.39 | 96 | 1007.5 |
| 20260509144506 | 52 | 167 | 8.0 | 12.0 | 0.01 | 0.39 | 0.39 | 96 | 1007.6 |
| 20260509143049 | 51 | 163 | 6.0 | 7.0 | 0.02 | 0.39 | 0.39 | 96 | 1007.8 |
| 20260509141546 | 51 | 158 | 5.0 | 8.0 | 0.03 | 0.39 | 0.39 | 96 | 1007.8 |
| 20260509140043 | 51 | 200 | 2.0 | 6.0 | 0.04 | 0.39 | 0.39 | 95 | 1008.0 |
| 20260509134543 | 51 | 209 | 1.0 | 4.0 | 0.03 | 0.38 | 0.38 | 95 | 1008.1 |
| 20260509133038 | 50 | 202 | 0.0 | 4.0 | 0.03 | 0.37 | 0.37 | 95 | 1008.3 |
| 20260509131541 | 50 | 208 | 2.0 | 6.0 | 0.03 | 0.36 | 0.36 | 95 | 1008.3 |
| 20260509130037 | 50 | 186 | 1.0 | 4.0 | 0.03 | 0.35 | 0.35 | 95 | 1008.3 |
| 20260509124556 | 50 | 187 | 1.0 | 4.0 | 0.04 | 0.35 | 0.35 | 95 | 1008.1 |
| 20260509123034 | 50 | 187 | 1.0 | 4.0 | 0.05 | 0.34 | 0.34 | 95 | 1008.2 |
| 20260509121534 | 50 | 196 | 2.0 | 5.0 | 0.04 | 0.33 | 0.33 | 94 | 1008.4 |
| 20260509120029 | 50 | 195 | 2.0 | 5.0 | 0.05 | 0.32 | 0.32 | 94 | 1008.5 |
| 20260509114528 | 50 | 189 | 2.0 | 4.0 | 0.05 | 0.31 | 0.31 | 94 | 1008.4 |
| 20260509113027 | 50 | 221 | 2.0 | 4.0 | 0.05 | 0.28 | 0.28 | 94 | 1008.3 |
| 20260509111526 | 50 | 192 | 2.0 | 5.0 | 0.06 | 0.28 | 0.28 | 93 | 1008.2 |
| 20260509110021 | 50 | 207 | 1.0 | 5.0 | 0.05 | 0.27 | 0.27 | 93 | 1008.2 |
| 20260509104530 | 50 | 200 | 2.0 | 5.0 | 0.05 | 0.26 | 0.26 | 93 | 1008.2 |
| 20260509103017 | 50 | 188 | 2.0 | 6.0 | 0.05 | 0.24 | 0.24 | 92 | 1008.3 |
| 20260509101518 | 50 | 190 | 1.0 | 4.0 | 0.04 | 0.23 | 0.23 | 92 | 1008.1 |
| 20260509100026 | 50 | 198 | 1.0 | 4.0 | 0.04 | 0.22 | 0.22 | 92 | 1008.1 |
| 20260509094521 | 50 | 260 | 1.0 | 6.0 | 0.03 | 0.21 | 0.21 | 91 | 1008.1 |
| 20260509093014 | 50 | 275 | 2.0 | 8.0 | 0.03 | 0.19 | 0.19 | 91 | 1008.1 |
| 20260509091516 | 50 | 263 | 5.0 | 13.0 | 0.05 | 0.19 | 0.19 | 91 | 1008.5 |
| 20260509090013 | 50 | 282 | 3.0 | 10.0 | 0.07 | 0.18 | 0.18 | 91 | 1008.5 |
| 20260509084516 | 50 | 283 | 3.0 | 12.0 | 0.12 | 0.18 | 0.18 | 91 | 1008.7 |
| 20260509083009 | 50 | 288 | 5.0 | 11.0 | 0.13 | 0.16 | 0.16 | 91 | 1008.9 |
| 20260509081512 | 50 | 311 | 4.0 | 12.0 | 0.14 | 0.14 | 0.14 | 90 | 1008.9 |
| 20260509080006 | 50 | 288 | 4.0 | 12.0 | 0.11 | 0.11 | 0.11 | 88 | 1009.2 |
| 20260509074503 | 51 | 288 | 8.0 | 16.0 | 0.06 | 0.06 | 0.06 | 85 | 1009.2 |
| 20260509073059 | 52 | 295 | 9.0 | 15.0 | 0.03 | 0.03 | 0.03 | 79 | 1009.1 |
| 20260509071608 | 55 | 267 | 10.0 | 20.0 | 0.00 | 0.00 | 0.00 | 70 | 1008.7 |
| 20260509070054 | 56 | 264 | 9.0 | 14.0 | 0.00 | 0.00 | 0.00 | 63 | 1008.3 |
| 20260509064549 | 56 | 271 | 5.0 | 10.0 | 0.00 | 0.00 | 0.00 | 63 | 1007.8 |
| 20260509063047 | 56 | 221 | 3.0 | 6.0 | 0.00 | 0.00 | 0.00 | 63 | 1007.7 |
| 20260509061550 | 56 | 213 | 2.0 | 5.0 | 0.00 | 0.00 | 0.00 | 63 | 1007.8 |
| 20260509060057 | 56 | 207 | 1.0 | 5.0 | 0.00 | 0.00 | 0.00 | 63 | 1007.9 |
| 20260509054558 | 56 | 185 | 3.0 | 5.0 | 0.00 | 0.00 | 0.00 | 63 | 1008.0 |
| 20260509053040 | 57 | 191 | 3.0 | 5.0 | 0.00 | 0.00 | 0.00 | 62 | 1008.2 |
| 20260509051539 | 57 | 183 | 3.0 | 5.0 | 0.00 | 0.00 | 0.00 | 62 | 1008.3 |
| 20260509050048 | 57 | 176 | 3.0 | 5.0 | 0.00 | 0.00 | 0.00 | 61 | 1008.4 |